Location: Sebastopol
(38.4021°N, 122.8239°W)
Time: 14:19:45
(UTC+00:00)

Cosmos 2180 Rocket - Pass Details

Date: 29 October 2020
Orbit: 953 x 1006 km, 82.9° (Epoch: 30 November)

Event Time Altitude Azimuth Distance (km) Brightness Sun altitude
Rises 12:10:59 0° 350° (N) 3,687 7.5 -28.7°
Reaches altitude 10° 12:13:31 10° 349° (NNW) 2,727 6.8 -28.3°
Enters shadow 12:16:58 35° 341° (NNW) 1,521 5.3 -27.6°
Exits shadow 12:19:17 68° 297° (WNW) 1,033 4.3 -27.1°
Maximum altitude 12:19:43 71° 266° (W) 1,016 4.3 -27.0°
Drops below altitude 10° 12:25:49 10° 184° (S) 2,679 6.7 -25.9°
Sets 12:28:17 0° 182° (S) 3,617 7.4 -25.4°
